| time (UTC) | temp F | wind direction | speed MPH | gust MPH | rain 1hr in | rain 24hr in | rain mn in | humidity % | barometer mb |
| 20260506042004 | 50 | 321 | 2.0 | 3.0 | 0.00 | 0.00 | 0.00 | 83 | 1012.0 |
| 20260506041004 | 50 | 316 | 2.0 | 3.0 | 0.00 | 0.00 | 0.00 | 82 | 1011.9 |
| 20260506040004 | 50 | 321 | 1.0 | 3.0 | 0.00 | 0.00 | 0.00 | 81 | 1011.9 |
| 20260506034004 | 50 | 322 | 2.0 | 5.0 | 0.00 | 0.00 | 0.00 | 81 | 1011.8 |
| 20260506033004 | 51 | 311 | 1.0 | 3.0 | 0.00 | 0.00 | 0.00 | 81 | 1011.7 |
| 20260506025004 | 51 | 304 | 0.0 | 2.0 | 0.00 | 0.00 | 0.00 | 79 | 1011.9 |
| 20260506024003 | 51 | 311 | 0.0 | 3.0 | 0.00 | 0.00 | 0.00 | 79 | 1011.9 |
| 20260506023004 | 51 | 355 | 0.0 | 3.0 | 0.00 | 0.00 | 0.00 | 78 | 1011.9 |
| 20260506021004 | 52 | 331 | 1.0 | 3.0 | 0.00 | 0.00 | 0.00 | 80 | 1011.8 |
| 20260506020004 | 52 | 328 | 0.0 | 3.0 | 0.00 | 0.00 | 0.00 | 81 | 1011.9 |
| 20260506015004 | 52 | 298 | 0.0 | 3.0 | 0.00 | 0.00 | 0.00 | 80 | 1011.9 |
| 20260506014004 | 52 | 5 | 0.0 | 2.0 | 0.00 | 0.00 | 0.00 | 79 | 1011.9 |
| 20260506013003 | 52 | 321 | 0.0 | 2.0 | 0.00 | 0.00 | 0.00 | 79 | 1012.0 |
| 20260506012004 | 52 | 352 | 1.0 | 2.0 | 0.00 | 0.00 | 0.00 | 78 | 1012.0 |
| 20260506011003 | 52 | 314 | 0.0 | 2.0 | 0.00 | 0.00 | 0.00 | 77 | 1012.0 |
| 20260506010004 | 52 | 84 | 0.0 | 2.0 | 0.00 | 0.00 | 0.00 | 77 | 1012.0 |
| 20260506005003 | 52 | 84 | 1.0 | 3.0 | 0.00 | 0.00 | 0.00 | 77 | 1012.0 |
| 20260506003003 | 53 | 96 | 0.0 | 2.0 | 0.00 | 0.00 | 0.00 | 76 | 1012.1 |
| 20260506002003 | 53 | 96 | 1.0 | 3.0 | 0.00 | 0.00 | 0.00 | 75 | 1012.1 |
| 20260506001004 | 53 | 329 | 0.0 | 2.0 | 0.00 | 0.00 | 0.00 | 75 | 1012.1 |
| 20260506000004 | 53 | 357 | 1.0 | 3.0 | 0.00 | 0.00 | 0.00 | 74 | 1012.1 |
| 20260505235003 | 53 | 258 | 1.0 | 2.0 | 0.00 | 0.00 | 0.00 | 74 | 1012.1 |
| 20260505233004 | 54 | 76 | 0.0 | 2.0 | 0.00 | 0.00 | 0.00 | 73 | 1012.1 |
| 20260505232004 | 54 | 76 | 2.0 | 3.0 | 0.00 | 0.00 | 0.00 | 73 | 1011.9 |
| 20260505230004 | 54 | 64 | 1.0 | 3.0 | 0.00 | 0.00 | 0.00 | 74 | 1011.9 |
| 20260505225003 | 55 | 33 | 1.0 | 5.0 | 0.00 | 0.00 | 0.00 | 74 | 1011.9 |
| 20260505224003 | 55 | 79 | 2.0 | 3.0 | 0.00 | 0.00 | 0.00 | 74 | 1011.8 |
| 20260505221004 | 55 | 267 | 2.0 | 3.0 | 0.00 | 0.00 | 0.00 | 77 | 1011.5 |
| 20260505220004 | 55 | 303 | 2.0 | 5.0 | 0.00 | 0.00 | 0.00 | 77 | 1011.5 |
| 20260505215004 | 55 | 309 | 2.0 | 5.0 | 0.00 | 0.00 | 0.00 | 77 | 1011.5 |
| 20260505214004 | 56 | 322 | 2.0 | 3.0 | 0.00 | 0.00 | 0.00 | 77 | 1011.4 |
| 20260505212003 | 56 | 325 | 1.0 | 3.0 | 0.00 | 0.00 | 0.00 | 76 | 1011.5 |
| 20260505211004 | 56 | 317 | 1.0 | 3.0 | 0.00 | 0.00 | 0.00 | 76 | 1011.4 |
| 20260505210004 | 56 | 323 | 1.0 | 3.0 | 0.00 | 0.00 | 0.00 | 76 | 1011.4 |
| 20260505205003 | 56 | 306 | 1.0 | 5.0 | 0.00 | 0.00 | 0.00 | 76 | 1011.4 |
| 20260505203003 | 56 | 299 | 1.0 | 3.0 | 0.00 | 0.00 | 0.00 | 76 | 1011.3 |
| 20260505201004 | 57 | 324 | 1.0 | 3.0 | 0.00 | 0.00 | 0.00 | 75 | 1011.3 |
| 20260505200004 | 57 | 324 | 1.0 | 2.0 | 0.00 | 0.00 | 0.00 | 75 | 1011.3 |
| 20260505194004 | 57 | 325 | 1.0 | 3.0 | 0.00 | 0.00 | 0.00 | 75 | 1011.1 |
| 20260505193003 | 57 | 323 | 0.0 | 2.0 | 0.00 | 0.00 | 0.00 | 74 | 1011.0 |
| 20260505192004 | 58 | 323 | 1.0 | 3.0 | 0.00 | 0.00 | 0.00 | 74 | 1011.0 |
| 20260505191004 | 58 | 317 | 1.0 | 3.0 | 0.00 | 0.00 | 0.00 | 73 | 1010.9 |
| 20260505190004 | 58 | 324 | 2.0 | 5.0 | 0.00 | 0.00 | 0.00 | 73 | 1010.9 |
| 20260505185003 | 58 | 316 | 2.0 | 3.0 | 0.00 | 0.00 | 0.00 | 74 | 1010.8 |
| 20260505184004 | 58 | 308 | 2.0 | 3.0 | 0.00 | 0.00 | 0.00 | 74 | 1010.8 |
| 20260505183003 | 58 | 308 | 1.0 | 2.0 | 0.00 | 0.00 | 0.00 | 73 | 1010.8 |
| 20260505181004 | 58 | 308 | 1.0 | 3.0 | 0.00 | 0.00 | 0.00 | 73 | 1010.7 |
| 20260505180003 | 58 | 307 | 1.0 | 2.0 | 0.00 | 0.00 | 0.00 | 73 | 1010.8 |
| 20260505174003 | 58 | 307 | 2.0 | 3.0 | 0.00 | 0.00 | 0.00 | 72 | 1010.8 |
| 20260505173003 | 58 | 315 | 2.0 | 3.0 | 0.00 | 0.00 | 0.00 | 72 | 1010.9 |
| 20260505172004 | 58 | 317 | 2.0 | 3.0 | 0.00 | 0.00 | 0.00 | 72 | 1010.9 |
| 20260505171004 | 58 | 323 | 2.0 | 3.0 | 0.00 | 0.00 | 0.00 | 71 | 1010.9 |
| 20260505170004 | 59 | 312 | 2.0 | 3.0 | 0.00 | 0.00 | 0.00 | 71 | 1011.0 |
| 20260505165004 | 59 | 312 | 2.0 | 5.0 | 0.00 | 0.00 | 0.00 | 71 | 1011.0 |
| 20260505164003 | 59 | 319 | 2.0 | 5.0 | 0.00 | 0.00 | 0.00 | 71 | 1011.0 |
| 20260505163003 | 59 | 320 | 2.0 | 9.0 | 0.00 | 0.00 | 0.00 | 70 | 1010.9 |
| 20260505162003 | 59 | 322 | 3.0 | 7.0 | 0.00 | 0.00 | 0.00 | 70 | 1010.9 |
| 20260505161004 | 59 | 310 | 3.0 | 7.0 | 0.00 | 0.00 | 0.00 | 69 | 1010.9 |
| 20260505153004 | 60 | 317 | 3.0 | 7.0 | 0.00 | 0.00 | 0.00 | 68 | 1011.0 |
| 20260505152004 | 60 | 332 | 2.0 | 8.0 | 0.00 | 0.00 | 0.00 | 68 | 1011.0 |
| 20260505151004 | 60 | 302 | 4.0 | 9.0 | 0.00 | 0.00 | 0.00 | 68 | 1011.1 |
| 20260505125003 | 60 | 304 | 3.0 | 8.0 | 0.00 | 0.00 | 0.00 | 67 | 1011.7 |
| 20260505122003 | 60 | 304 | 3.0 | 9.0 | 0.00 | 0.00 | 0.00 | 70 | 1011.7 |
| 20260505121003 | 59 | 299 | 5.0 | 8.0 | 0.00 | 0.00 | 0.00 | 69 | 1011.7 |
| 20260505115004 | 59 | 314 | 4.0 | 10.0 | 0.00 | 0.00 | 0.00 | 69 | 1011.8 |
| 20260505114003 | 59 | 314 | 3.0 | 8.0 | 0.00 | 0.00 | 0.00 | 70 | 1011.8 |
| 20260505112004 | 58 | 306 | 5.0 | 12.0 | 0.00 | 0.00 | 0.00 | 70 | 1012.0 |
| 20260505111004 | 58 | 315 | 5.0 | 12.0 | 0.00 | 0.00 | 0.00 | 71 | 1012.0 |
| 20260505102004 | 59 | 296 | 3.0 | 8.0 | 0.00 | 0.00 | 0.00 | 70 | 1012.1 |
| 20260505101004 | 58 | 326 | 5.0 | 9.0 | 0.00 | 0.00 | 0.00 | 71 | 1012.2 |
| 20260505100003 | 58 | 317 | 4.0 | 10.0 | 0.00 | 0.00 | 0.00 | 70 | 1012.2 |
| 20260505095004 | 58 | 316 | 4.0 | 10.0 | 0.00 | 0.00 | 0.00 | 70 | 1012.2 |
| 20260505094003 | 59 | 298 | 2.0 | 12.0 | 0.00 | 0.00 | 0.00 | 70 | 1012.2 |
| 20260505093003 | 59 | 275 | 3.0 | 10.0 | 0.00 | 0.00 | 0.00 | 71 | 1012.1 |
| 20260505092004 | 59 | 320 | 3.0 | 9.0 | 0.00 | 0.00 | 0.00 | 70 | 1012.2 |
| 20260505091004 | 59 | 306 | 4.0 | 10.0 | 0.00 | 0.00 | 0.00 | 71 | 1012.2 |
| 20260505090004 | 58 | 304 | 3.0 | 9.0 | 0.00 | 0.00 | 0.00 | 72 | 1012.2 |
| 20260505085004 | 58 | 285 | 2.0 | 12.0 | 0.00 | 0.00 | 0.00 | 74 | 1012.4 |
| 20260505083004 | 58 | 314 | 5.0 | 10.0 | 0.00 | 0.00 | 0.00 | 72 | 1012.4 |
| 20260505082004 | 58 | 319 | 4.0 | 9.0 | 0.00 | 0.00 | 0.00 | 73 | 1012.3 |
| 20260505081003 | 58 | 294 | 2.0 | 7.0 | 0.00 | 0.00 | 0.00 | 75 | 1012.3 |
| 20260505080004 | 57 | 276 | 2.0 | 12.0 | 0.00 | 0.00 | 0.00 | 76 | 1012.3 |
| 20260505075003 | 57 | 315 | 2.0 | 8.0 | 0.00 | 0.00 | 0.00 | 78 | 1012.2 |
| 20260505074003 | 57 | 328 | 1.0 | 3.0 | 0.00 | 0.00 | 0.00 | 81 | 1012.2 |
| 20260505073004 | 56 | 314 | 1.0 | 5.0 | 0.00 | 0.00 | 0.00 | 84 | 1012.3 |
| 20260505072003 | 56 | 312 | 3.0 | 7.0 | 0.00 | 0.00 | 0.00 | 84 | 1012.3 |
| 20260505071004 | 56 | 295 | 2.0 | 6.0 | 0.00 | 0.00 | 0.00 | 88 | 1012.3 |
| 20260505070004 | 54 | 324 | 2.0 | 6.0 | 0.00 | 0.00 | 0.00 | 90 | 1012.4 |
| 20260505064004 | 53 | 306 | 1.0 | 3.0 | 0.00 | 0.00 | 0.00 | 91 | 1012.6 |
| 20260505063004 | 53 | 323 | 1.0 | 3.0 | 0.00 | 0.00 | 0.00 | 91 | 1012.8 |
| 20260505062004 | 52 | 327 | 0.0 | 2.0 | 0.00 | 0.00 | 0.00 | 91 | 1012.6 |
| 20260505061003 | 52 | 322 | 1.0 | 5.0 | 0.00 | 0.00 | 0.00 | 91 | 1012.7 |
| 20260505060004 | 52 | 321 | 2.0 | 5.0 | 0.00 | 0.00 | 0.00 | 91 | 1012.5 |
| 20260505054003 | 52 | 327 | 0.0 | 1.0 | 0.00 | 0.00 | 0.00 | 91 | 1012.7 |
| 20260505053004 | 51 | 327 | 0.0 | 0.0 | 0.00 | 0.00 | 0.00 | 91 | 1012.6 |
| 20260505051004 | 51 | 327 | 0.0 | 0.0 | 0.00 | 0.00 | 0.00 | 91 | 1012.5 |